• In Netherlands
  • List of Countries
  • For 7 days
  • Water Temperature
  • Satellite Maps
  • Weather Map
  • Weather Widgets
  • user-avatar
    Login

    Hourly Weather Shkoder

    Today, 27 June, Tuesday

    Time Temperature Precipitation Wind Pressure Humidity
    00:00 +21°C° 0 mm 1 mps 738 mmHg 85%
    01:00 +21°C° 0 mm 1 mps 738 mmHg 85%
    02:00 +21°C° 0 mm 1 mps 738 mmHg 86%
    03:00 +21°C° 0 mm 1 mps 738 mmHg 86%
    04:00 +20°C° 0 mm 1 mps 738 mmHg 86%
    05:00 +23°C° 0 mm 1 mps 738 mmHg 80%
    06:00 +25°C° 0 mm 1 mps 738 mmHg 73%
    07:00 +28°C° 0 mm 1 mps 738 mmHg 66%
    08:00 +29°C° 0 mm 1 mps 738 mmHg 58%
    09:00 +31°C° 0 mm 1 mps 738 mmHg 50%
    10:00 +33°C° 0 mm 1 mps 738 mmHg 42%
    11:00 +34°C° 0 mm 2 mps 738 mmHg 40%
    12:00 +35°C° 0 mm 2 mps 737 mmHg 38%
    13:00 +35°C° 0 mm 3 mps 737 mmHg 36%
    14:00 +35°C° 0 mm 2 mps 737 mmHg 38%
    15:00 +34°C° 0 mm 2 mps 737 mmHg 40%
    16:00 +34°C° 0 mm 2 mps 736 mmHg 42%
    17:00 +30°C° 0 mm 2 mps 736 mmHg 54%
    18:00 +27°C° 0 mm 1 mps 736 mmHg 65%
    19:00 +24°C° 0 mm 1 mps 736 mmHg 76%
    20:00 +23°C° 0 mm 1 mps 736 mmHg 78%
    21:00 +22°C° 0 mm 1 mps 736 mmHg 79%
    22:00 +21°C° 0 mm 1 mps 737 mmHg 81%
    23:00 +21°C° 0 mm 1 mps 737 mmHg 77%

    Tomorrow, 28 June, Wednesday

    Time Temperature Precipitation Wind Pressure Humidity
    00:00 +20°C° 0 mm 2 mps 737 mmHg 74%
    01:00 +20°C° 0 mm 2 mps 736 mmHg 71%
    02:00 +20°C° 0 mm 2 mps 736 mmHg 70%
    03:00 +19°C° 0 mm 2 mps 736 mmHg 70%
    04:00 +19°C° 0 mm 2 mps 736 mmHg 70%
    05:00 +23°C° 0 mm 2 mps 736 mmHg 64%
    06:00 +26°C° 0 mm 2 mps 736 mmHg 58%
    07:00 +29°C° 0 mm 2 mps 737 mmHg 52%
    08:00 +30°C° 0 mm 2 mps 737 mmHg 47%
    09:00 +31°C° 0 mm 3 mps 737 mmHg 42%
    10:00 +34°C° 0 mm 3 mps 737 mmHg 37%
    11:00 +34°C° 0 mm 3 mps 736 mmHg 38%
    12:00 +34°C° 0 mm 3 mps 736 mmHg 38%
    13:00 +35°C° 0 mm 3 mps 736 mmHg 38%
    14:00 +34°C° 0 mm 3 mps 736 mmHg 40%
    15:00 +34°C° 0 mm 3 mps 735 mmHg 42%
    16:00 +33°C° 0 mm 3 mps 735 mmHg 44%
    17:00 +30°C° 0 mm 2 mps 735 mmHg 54%
    18:00 +28°C° 0 mm 2 mps 735 mmHg 64%
    19:00 +26°C° 0 mm 1 mps 735 mmHg 73%
    20:00 +25°C° 0.1 mm 1 mps 736 mmHg 76%
    21:00 +24°C° 0.1 mm 2 mps 736 mmHg 78%
    22:00 +21°C° 0.1 mm 2 mps 736 mmHg 80%
    23:00 +21°C° 0 mm 2 mps 736 mmHg 79%

    Day after tomorrow, 29 June, Thursday

    Time Temperature Precipitation Wind Pressure Humidity
    00:00 +21°C° 0 mm 2 mps 736 mmHg 78%
    01:00 +21°C° 0 mm 2 mps 736 mmHg 78%
    02:00 +21°C° 0 mm 2 mps 735 mmHg 76%
    03:00 +21°C° 0 mm 2 mps 735 mmHg 74%
    04:00 +21°C° 0 mm 2 mps 735 mmHg 73%
    05:00 +24°C° 0.1 mm 2 mps 735 mmHg 65%
    06:00 +27°C° 0.1 mm 2 mps 735 mmHg 57%
    07:00 +29°C° 0.1 mm 2 mps 735 mmHg 49%
    08:00 +31°C° 0 mm 3 mps 735 mmHg 45%
    09:00 +33°C° 0 mm 4 mps 735 mmHg 41%
    10:00 +34°C° 0 mm 5 mps 735 mmHg 37%
    11:00 +35°C° 0 mm 5 mps 735 mmHg 39%
    12:00 +35°C° 0 mm 5 mps 735 mmHg 41%
    13:00 +35°C° 0 mm 5 mps 735 mmHg 43%
    14:00 +34°C° 0 mm 5 mps 735 mmHg 44%
    15:00 +34°C° 0 mm 5 mps 735 mmHg 45%
    16:00 +34°C° 0 mm 4 mps 735 mmHg 46%
    17:00 +31°C° 0 mm 3 mps 736 mmHg 57%
    18:00 +29°C° 0 mm 3 mps 736 mmHg 68%
    19:00 +26°C° 0 mm 2 mps 736 mmHg 78%
    20:00 +25°C° 0 mm 2 mps 736 mmHg 81%
    21:00 +24°C° 0 mm 2 mps 737 mmHg 84%
    22:00 +23°C° 0 mm 2 mps 737 mmHg 86%
    23:00 +23°C° 0 mm 2 mps 737 mmHg 85%

    30 June, Friday

    Time Temperature Precipitation Wind Pressure Humidity
    00:00 +23°C° 0 mm 2 mps 737 mmHg 84%
    01:00 +21°C° 0 mm 2 mps 738 mmHg 83%
    02:00 +21°C° 0 mm 2 mps 738 mmHg 84%
    03:00 +21°C° 0 mm 2 mps 738 mmHg 85%
    04:00 +20°C° 0 mm 2 mps 738 mmHg 87%
    05:00 +23°C° 0 mm 2 mps 739 mmHg 79%
    06:00 +26°C° 0 mm 2 mps 739 mmHg 71%
    07:00 +28°C° 0 mm 2 mps 739 mmHg 63%
    08:00 +30°C° 0 mm 2 mps 739 mmHg 53%
    09:00 +32°C° 0 mm 2 mps 739 mmHg 43%
    10:00 +35°C° 0 mm 2 mps 739 mmHg 33%
    11:00 +36°C° 0 mm 2 mps 739 mmHg 31%
    12:00 +37°C° 0 mm 2 mps 739 mmHg 28%
    13:00 +38°C° 0 mm 2 mps 739 mmHg 26%
    14:00 +37°C° 0 mm 2 mps 739 mmHg 26%
    15:00 +37°C° 0 mm 2 mps 738 mmHg 27%
    16:00 +37°C° 0 mm 2 mps 738 mmHg 28%
    17:00 +34°C° 0 mm 2 mps 738 mmHg 37%
    18:00 +30°C° 0 mm 1 mps 738 mmHg 46%
    19:00 +27°C° 0 mm 1 mps 738 mmHg 55%
    20:00 +26°C° 0 mm 1 mps 738 mmHg 56%
    21:00 +25°C° 0 mm 1 mps 738 mmHg 56%
    22:00 +24°C° 0 mm 1 mps 738 mmHg 56%
    23:00 +24°C° 0 mm 1 mps 738 mmHg 57%

    1 July, Saturday

    Time Temperature Precipitation Wind Pressure Humidity
    00:00 +23°C° 0 mm 1 mps 738 mmHg 57%
    01:00 +23°C° 0 mm 1 mps 737 mmHg 57%
    02:00 +23°C° 0 mm 1 mps 737 mmHg 58%
    03:00 +23°C° 0 mm 2 mps 737 mmHg 59%
    04:00 +23°C° 0 mm 2 mps 737 mmHg 60%
    05:00 +26°C° 0 mm 2 mps 737 mmHg 53%
    06:00 +29°C° 0 mm 1 mps 737 mmHg 46%
    07:00 +33°C° 0 mm 1 mps 737 mmHg 39%
    08:00 +35°C° 0 mm 2 mps 737 mmHg 34%
    09:00 +36°C° 0 mm 2 mps 737 mmHg 30%
    10:00 +38°C° 0 mm 3 mps 737 mmHg 25%
    11:00 +39°C° 0 mm 3 mps 737 mmHg 24%
    12:00 +40°C° 0 mm 4 mps 737 mmHg 23%
    13:00 +41°C° 0 mm 4 mps 737 mmHg 22%
    14:00 +39°C° 0 mm 3 mps 737 mmHg 25%
    15:00 +38°C° 0 mm 3 mps 737 mmHg 28%
    16:00 +37°C° 0 mm 3 mps 737 mmHg 31%
    17:00 +34°C° 0 mm 2 mps 737 mmHg 42%
    18:00 +31°C° 0 mm 2 mps 737 mmHg 53%
    19:00 +28°C° 0 mm 2 mps 737 mmHg 64%
    20:00 +27°C° 0 mm 2 mps 737 mmHg 67%
    21:00 +25°C° 0 mm 1 mps 737 mmHg 69%
    22:00 +24°C° 0 mm 1 mps 737 mmHg 72%
    23:00 +24°C° 0 mm 1 mps 737 mmHg 72%

    2 July, Sunday

    Time Temperature Precipitation Wind Pressure Humidity
    00:00 +24°C° 0 mm 1 mps 737 mmHg 71%
    01:00 +24°C° 0 mm 1 mps 737 mmHg 71%
    02:00 +24°C° 0.1 mm 1 mps 737 mmHg 72%
    03:00 +23°C° 0.1 mm 1 mps 737 mmHg 73%
    04:00 +23°C° 0.1 mm 2 mps 736 mmHg 73%
    05:00 +25°C° 0 mm 1 mps 736 mmHg 67%
    06:00 +28°C° 0 mm 1 mps 737 mmHg 61%
    07:00 +30°C° 0 mm 1 mps 737 mmHg 55%
    08:00 +30°C° 0.1 mm 1 mps 736 mmHg 54%
    09:00 +31°C° 0.1 mm 1 mps 736 mmHg 53%
    10:00 +31°C° 0.1 mm 2 mps 736 mmHg 51%
    11:00 +31°C° 0.2 mm 2 mps 736 mmHg 51%
    12:00 +31°C° 0.2 mm 2 mps 736 mmHg 50%
    13:00 +31°C° 0.2 mm 2 mps 736 mmHg 49%
    14:00 +31°C° 0.1 mm 3 mps 736 mmHg 48%
    15:00 +31°C° 0.1 mm 3 mps 735 mmHg 47%
    16:00 +31°C° 0.1 mm 3 mps 735 mmHg 46%
    17:00 +29°C° 0.2 mm 3 mps 735 mmHg 55%
    18:00 +27°C° 0.2 mm 3 mps 735 mmHg 64%
    19:00 +24°C° 0.2 mm 2 mps 735 mmHg 72%
    20:00 +23°C° 0.4 mm 2 mps 735 mmHg 76%
    21:00 +21°C° 0.4 mm 2 mps 735 mmHg 80%
    22:00 +19°C° 0.4 mm 2 mps 735 mmHg 84%
    23:00 +19°C° 0.3 mm 2 mps 736 mmHg 85%
    Show more